Volver al catálogo

COSMOS 2251 DEB

ActivoLEO
NORAD 35836·DEBRIS·🇷🇺 Russia

Lanzado Jun 16, 1993 desde Plesetsk Cosmodrome

Loading…

Próximos Pases (próximas 24 horas)

TLE

ActualizadoSource: Space-Track

Época: Sep 13, 2026, 23:57 UTC

1 35836U 93036ATJ 26256.99818188  .00007026  00000-0  10066-2 0  9999
2 35836  74.0326 355.5007 0023189 344.9004  15.1476 14.76549597675763

Sigue COSMOS 2251 DEB en tiempo real con AllMySat

Download on the App Store